EW6167 Weather Reports


Display with metric or nautical units.
time (UTC)temp
F
wind
direction
speed
MPH
gust
MPH
rain 1hr
in
rain 24hr
in
rain mn
in
humidity
%
barometer
mb
20260831080031 45 196 9.0 0.0 0.00 0.00 0.00 54 1011.0
20260831075553 46 200 9.0 0.0 0.00 0.00 0.00 53 1011.0
20260831075106 47 200 9.0 0.0 0.00 0.00 0.00 50 1011.0
20260831074505 46 188 7.0 0.0 0.00 0.00 0.00 51 1011.0
20260831074016 46 195 8.0 0.0 0.00 0.00 0.00 53 1010.9
20260831073522 46 206 9.0 0.0 0.00 0.00 0.00 53 1011.0
20260831073031 45 200 9.0 0.0 0.00 0.00 0.00 54 1011.0
20260831072539 45 200 9.0 0.0 0.00 0.00 0.00 56 1010.9
20260831072053 45 215 8.0 0.0 0.00 0.00 0.00 55 1010.8
20260831071513 46 209 9.0 0.0 0.00 0.00 0.00 54 1010.7
20260831071022 46 191 10.0 0.0 0.00 0.00 0.00 53 1010.8
20260831070532 47 194 9.0 0.0 0.00 0.00 0.00 52 1010.7
20260831070044 47 179 8.0 0.0 0.00 0.00 0.00 51 1010.7
20260831065547 47 217 7.0 0.0 0.00 0.00 0.00 48 1010.8
20260831065057 45 194 7.0 0.0 0.00 0.00 0.00 54 1010.5
20260831064518 45 217 8.0 0.0 0.00 0.00 0.00 58 1010.5
20260831064038 46 218 8.0 0.0 0.00 0.00 0.00 57 1010.6
20260831063547 47 225 8.0 0.0 0.00 0.00 0.00 54 1010.5
20260831063056 47 214 8.0 0.0 0.00 0.00 0.00 52 1010.3
20260831062558 47 203 8.0 0.0 0.00 0.00 0.00 53 1010.2
20260831062009 47 199 8.0 0.0 0.00 0.00 0.00 54 1010.0
20260831061521 46 202 7.0 0.0 0.00 0.00 0.00 56 1010.1
20260831061032 46 200 7.0 0.0 0.00 0.00 0.00 56 1010.2
20260831060537 47 209 7.0 0.0 0.00 0.00 0.00 55 1010.0
20260831060046 47 192 7.0 0.0 0.00 0.00 0.00 54 1010.0
20260831055557 48 200 7.0 0.0 0.00 0.00 0.00 52 1010.0
20260831055009 48 201 6.0 0.0 0.00 0.00 0.00 52 1010.0
20260831054523 47 187 5.0 0.0 0.00 0.00 0.00 54 1009.8
20260831054033 47 180 5.0 0.0 0.00 0.00 0.00 53 1009.7
20260831053545 47 194 6.0 0.0 0.00 0.00 0.00 53 1009.8
20260831053038 47 190 6.0 0.0 0.00 0.00 0.00 54 1009.7
20260831052549 46 209 5.0 0.0 0.00 0.00 0.00 57 1009.7
20260831052101 46 202 4.0 0.0 0.00 0.00 0.00 58 1009.6
20260831051512 47 192 5.0 0.0 0.00 0.00 0.00 56 1009.6
20260831051033 48 201 5.0 0.0 0.00 0.00 0.00 54 1009.5
20260831050543 48 198 5.0 0.0 0.00 0.00 0.00 53 1009.5
20260831050049 48 190 5.0 0.0 0.00 0.00 0.00 56 1009.4
20260831045558 48 185 6.0 0.0 0.00 0.00 0.00 56 1009.5
20260831045012 48 200 6.0 0.0 0.00 0.00 0.00 56 1009.4
20260831044526 48 198 6.0 0.0 0.00 0.00 0.00 57 1009.4
20260831044034 48 193 6.0 0.0 0.00 0.00 0.00 56 1009.3
20260831043604 48 196 5.0 0.0 0.00 0.00 0.00 56 1009.4
20260831043020 49 190 5.0 0.0 0.00 0.00 0.00 53 1009.4
20260831042538 49 195 6.0 0.0 0.00 0.00 0.00 53 1009.3
20260831042054 49 202 5.0 0.0 0.00 0.00 0.00 52 1009.3
20260831041505 50 201 5.0 0.0 0.00 0.00 0.00 51 1009.2
20260831041025 50 222 6.0 0.0 0.00 0.00 0.00 50 1009.2
20260831040538 50 221 7.0 0.0 0.00 0.00 0.00 50 1009.3
20260831040052 50 219 7.0 0.0 0.00 0.00 0.00 49 1009.3
20260831035520 50 235 6.0 0.0 0.00 0.00 0.00 51 1009.4
20260831035034 49 235 4.0 0.0 0.00 0.00 0.00 52 1009.4
20260831034544 50 189 4.0 0.0 0.00 0.00 0.00 50 1009.2
20260831034052 51 194 4.0 0.0 0.00 0.00 0.00 48 1009.3
20260831033601 52 228 4.0 0.0 0.00 0.00 0.00 47 1009.2
20260831033015 53 228 5.0 0.0 0.00 0.00 0.00 46 1009.0
20260831032534 53 217 5.0 0.0 0.00 0.00 0.00 44 1009.0
20260831032047 53 236 4.0 0.0 0.00 0.00 0.00 43 1008.9
20260831031511 54 211 5.0 0.0 0.00 0.00 0.00 40 1008.9
20260831031024 55 211 3.0 0.0 0.00 0.00 0.00 36 1008.7
20260831030543 57 236 2.0 0.0 0.00 0.00 0.00 34 1008.7
20260831030055 56 218 2.0 0.0 0.00 0.00 0.00 33 1008.7
20260831025559 55 218 3.0 0.0 0.00 0.00 0.00 35 1008.5
20260831025103 54 218 3.0 0.0 0.00 0.00 0.00 38 1008.3
20260831024511 54 82 2.0 0.0 0.00 0.00 0.00 40 1008.2
20260831024036 56 80 2.0 0.0 0.00 0.00 0.00 39 1007.9
20260831023545 58 83 3.0 0.0 0.00 0.00 0.00 36 1007.9
20260831023057 59 82 3.0 0.0 0.00 0.00 0.00 34 1007.8
20260831022505 60 88 3.0 0.0 0.00 0.00 0.00 30 1007.5
20260831022024 61 157 2.0 0.0 0.00 0.00 0.00 30 1007.6
20260831021544 62 342 3.0 0.0 0.00 0.00 0.00 29 1007.4
20260831021058 62 280 3.0 0.0 0.00 0.00 0.00 28 1007.2
20260831020505 63 295 2.0 0.0 0.00 0.00 0.00 28 1007.2
20260831020018 64 295 3.0 0.0 0.00 0.00 0.00 27 1007.1
20260831015537 64 295 4.0 0.0 0.00 0.00 0.00 27 1007.1
20260831015047 65 289 4.0 0.0 0.00 0.00 0.00 25 1007.2
20260831014559 65 279 4.0 0.0 0.00 0.00 0.00 24 1007.1
20260831014102 65 285 3.0 0.0 0.00 0.00 0.00 25 1007.1
20260831013521 65 307 4.0 0.0 0.00 0.00 0.00 25 1007.1
20260831013032 65 307 4.0 0.0 0.00 0.00 0.00 24 1007.1
20260831012546 65 305 5.0 0.0 0.00 0.00 0.00 24 1007.1
20260831012052 66 306 4.0 0.0 0.00 0.00 0.00 23 1007.2
20260831011605 66 299 4.0 0.0 0.00 0.00 0.00 22 1007.2
20260831011014 67 300 7.0 0.0 0.00 0.00 0.00 22 1007.2
20260831010540 67 298 9.0 0.0 0.00 0.00 0.00 21 1007.2
20260831010058 68 315 10.0 0.0 0.00 0.00 0.00 20 1007.2
20260831005517 68 298 12.0 0.0 0.00 0.00 0.00 19 1007.2
20260831005037 69 300 13.0 0.0 0.00 0.00 0.00 18 1007.2
20260831004547 69 284 13.0 0.0 0.00 0.00 0.00 18 1007.1
20260831004059 69 292 12.0 0.0 0.00 0.00 0.00 18 1007.0
20260831003525 70 298 10.0 0.0 0.00 0.00 0.00 18 1006.9
20260831003043 70 290 10.0 0.0 0.00 0.00 0.00 18 1006.9
20260831002558 70 309 10.0 0.0 0.00 0.00 0.00 18 1006.9
20260831002016 70 311 10.0 0.0 0.00 0.00 0.00 18 1006.9
20260831001531 70 296 8.0 0.0 0.00 0.00 0.00 17 1006.9
20260831001044 70 290 9.0 0.0 0.00 0.00 0.00 18 1006.9
20260831000552 70 267 11.0 0.0 0.00 0.00 0.00 16 1006.9
20260830235525 70 289 9.0 0.0 0.00 0.00 0.00 17 1007.0
20260830235040 70 280 10.0 0.0 0.00 0.00 0.00 16 1007.0
20260830234559 70 279 10.0 0.0 0.00 0.00 0.00 15 1006.9
20260830234015 70 265 9.0 0.0 0.00 0.00 0.00 16 1007.0
20260830233536 70 277 9.0 0.0 0.00 0.00 0.00 17 1007.1
20260830233054 70 296 9.0 0.0 0.00 0.00 0.00 17 1006.9
20260830232516 71 270 9.0 0.0 0.00 0.00 0.00 15 1006.9
20260830232026 71 265 10.0 0.0 0.00 0.00 0.00 16 1007.0
20260830231541 71 296 11.0 0.0 0.00 0.00 0.00 16 1006.9
20260830231046 71 334 9.0 0.0 0.00 0.00 0.00 16 1006.7
20260830230511 71 257 10.0 0.0 0.00 0.00 0.00 16 1007.0
20260830230019 71 300 12.0 0.0 0.00 0.00 0.00 17 1006.8
20260830225531 71 265 12.0 0.0 0.00 0.00 0.00 15 1006.8
20260830225047 71 278 13.0 0.0 0.00 0.00 0.00 15 1006.8
20260830224502 71 277 11.0 0.0 0.00 0.00 0.00 16 1006.8
20260830224024 71 257 7.0 0.0 0.00 0.00 0.00 15 1006.8
20260830223533 70 234 8.0 0.0 0.00 0.00 0.00 16 1007.0
20260830223043 70 258 9.0 0.0 0.00 0.00 0.00 16 1007.1
20260830222558 70 211 8.0 0.0 0.00 0.00 0.00 17 1007.1
20260830222020 70 256 12.0 0.0 0.00 0.00 0.00 17 1007.1
20260830221531 70 300 11.0 0.0 0.00 0.00 0.00 17 1007.2
20260830221044 70 300 9.0 0.0 0.00 0.00 0.00 17 1007.2
20260830220502 70 213 11.0 0.0 0.00 0.00 0.00 16 1007.2
20260830220025 70 281 12.0 0.0 0.00 0.00 0.00 17 1007.2
20260830215536 70 250 11.0 0.0 0.00 0.00 0.00 17 1007.3
20260830215048 70 267 10.0 0.0 0.00 0.00 0.00 17 1007.2
20260830214509 69 275 8.0 0.0 0.00 0.00 0.00 16 1007.2
20260830214020 69 233 6.0 0.0 0.00 0.00 0.00 17 1007.3
20260830213542 68 263 6.0 0.0 0.00 0.00 0.00 19 1007.3
20260830213001 69 205 7.0 0.0 0.00 0.00 0.00 19 1007.3
20260830212518 69 257 5.0 0.0 0.00 0.00 0.00 19 1007.3
20260830212030 69 259 4.0 0.0 0.00 0.00 0.00 18 1007.4
20260830211543 69 188 6.0 0.0 0.00 0.00 0.00 16 1007.2
20260830211007 68 264 7.0 0.0 0.00 0.00 0.00 20 1007.3
20260830210514 69 289 9.0 0.0 0.00 0.00 0.00 21 1007.4
20260830210026 69 281 9.0 0.0 0.00 0.00 0.00 19 1007.5
20260830205535 68 304 6.0 0.0 0.00 0.00 0.00 21 1007.5
20260830205042 68 309 6.0 0.0 0.00 0.00 0.00 20 1007.5
20260830204601 68 265 7.0 0.0 0.00 0.00 0.00 20 1007.6
20260830204009 68 209 6.0 0.0 0.00 0.00 0.00 21 1007.5
20260830203517 68 215 8.0 0.0 0.00 0.00 0.00 21 1007.6
20260830203038 67 196 11.0 0.0 0.00 0.00 0.00 22 1007.7
20260830202600 67 250 13.0 0.0 0.00 0.00 0.00 21 1007.7
20260830202020 67 259 11.0 0.0 0.00 0.00 0.00 23 1007.7
20260830201537 66 263 12.0 0.0 0.00 0.00 0.00 22 1007.7
20260830201040 66 286 14.0 0.0 0.00 0.00 0.00 25 1007.8
20260830200549 67 293 12.0 0.0 0.00 0.00 0.00 25 1007.6
20260830200010 66 290 7.0 0.0 0.00 0.00 0.00 25 1007.6
20260830195524 66 242 6.0 0.0 0.00 0.00 0.00 24 1007.6
20260830195037 65 275 6.0 0.0 0.00 0.00 0.00 26 1007.7
20260830194550 65 229 10.0 0.0 0.00 0.00 0.00 24 1007.5
20260830194015 65 209 13.0 0.0 0.00 0.00 0.00 23 1007.5
20260830193527 65 250 13.0 0.0 0.00 0.00 0.00 26 1007.5
20260830193050 65 314 12.0 0.0 0.00 0.00 0.00 29 1007.4
20260830192557 65 297 11.0 0.0 0.00 0.00 0.00 29 1007.4
20260830192004 65 284 11.0 0.0 0.00 0.00 0.00 28 1007.5
20260830191526 64 272 12.0 0.0 0.00 0.00 0.00 29 1007.3
20260830191036 65 326 14.0 0.0 0.00 0.00 0.00 29 1007.4
20260830190546 64 299 13.0 0.0 0.00 0.00 0.00 31 1007.3
20260830190058 64 313 13.0 0.0 0.00 0.00 0.00 31 1007.5
20260830185516 64 319 13.0 0.0 0.00 0.00 0.00 31 1007.6
20260830185034 63 284 13.0 0.0 0.00 0.00 0.00 35 1007.7
20260830184543 63 300 13.0 0.0 0.00 0.00 0.00 36 1007.2
20260830184059 62 271 14.0 0.0 0.00 0.00 0.00 35 1007.3
20260830183511 63 288 14.0 0.0 0.00 0.00 0.00 37 1007.4
20260830183024 62 298 13.0 0.0 0.00 0.00 0.00 40 1007.3
20260830182534 62 281 11.0 0.0 0.00 0.00 0.00 40 1007.4
20260830182047 61 321 8.0 0.0 0.00 0.00 0.00 44 1007.3
20260830181509 60 355 8.0 0.0 0.00 0.00 0.00 48 1007.4
20260830181028 60 351 9.0 0.0 0.00 0.00 0.00 50 1007.7
20260830180541 60 355 5.0 0.0 0.00 0.00 0.00 51 1007.7
20260830180107 59 323 6.0 0.0 0.00 0.00 0.00 51 1007.6
20260830175510 59 192 7.0 0.0 0.00 0.00 0.00 51 1007.4
20260830175031 59 330 7.0 0.0 0.00 0.00 0.00 55 1007.5
20260830174542 59 5 8.0 0.0 0.00 0.00 0.00 54 1007.6
20260830174049 59 51 8.0 0.0 0.00 0.00 0.00 60 1007.5
20260830173559 58 9 7.0 0.0 0.00 0.00 0.00 63 1007.5
20260830173004 57 22 7.0 0.0 0.00 0.00 0.00 64 1007.5
20260830172512 57 32 7.0 0.0 0.00 0.00 0.00 65 1007.5
20260830172016 57 34 7.0 0.0 0.00 0.00 0.00 68 1007.4
20260830171537 57 34 6.0 0.0 0.00 0.00 0.00 68 1007.3
20260830171038 56 5 6.0 0.0 0.00 0.00 0.00 70 1007.2
20260830170555 56 53 6.0 0.0 0.00 0.00 0.00 71 1007.2
20260830170106 56 20 7.0 0.0 0.00 0.00 0.00 70 1007.3
20260830165509 55 14 7.0 0.0 0.00 0.00 0.00 72 1007.2
20260830165012 55 17 8.0 0.0 0.00 0.00 0.00 73 1007.2
20260830164520 55 9 8.0 0.0 0.00 0.00 0.00 74 1007.2
20260830164029 55 5 7.0 0.0 0.00 0.00 0.00 75 1007.2
20260830163548 55 355 7.0 0.0 0.00 0.00 0.00 76 1007.1
20260830163058 54 350 7.0 0.0 0.00 0.00 0.00 77 1007.3
20260830162503 54 19 8.0 0.0 0.00 0.00 0.00 77 1007.2
20260830162018 54 20 7.0 0.0 0.00 0.00 0.00 79 1007.2
20260830161537 54 9 7.0 0.0 0.00 0.00 0.00 78 1007.1
20260830161050 53 24 7.0 0.0 0.00 0.00 0.00 78 1007.1
20260830160503 53 14 8.0 0.0 0.00 0.00 0.00 80 1007.0
20260830160029 52 360 9.0 0.0 0.00 0.00 0.00 79 1007.0
20260830155545 52 355 9.0 0.0 0.00 0.00 0.00 80 1006.9
20260830155057 52 355 9.0 0.0 0.00 0.00 0.00 81 1006.9
20260830154515 52 333 10.0 0.0 0.00 0.00 0.00 80 1006.9
20260830154042 52 355 10.0 0.0 0.00 0.00 0.00 81 1006.9
20260830153551 52 345 10.0 0.0 0.00 0.00 0.00 81 1006.9
20260830153005 52 338 11.0 0.0 0.00 0.00 0.00 83 1006.8
20260830152525 52 346 12.0 0.0 0.00 0.00 0.00 82 1006.7
20260830152044 52 346 13.0 0.0 0.00 0.00 0.00 82 1006.7
20260830151602 52 344 12.0 0.0 0.00 0.00 0.00 82 1006.6
20260830151007 52 346 10.0 0.0 0.00 0.00 0.00 83 1006.5
20260830150515 52 333 10.0 0.0 0.00 0.00 0.00 83 1006.5
20260830150038 51 350 9.0 0.0 0.00 0.00 0.00 83 1006.4
20260830145552 51 360 9.0 0.0 0.00 0.00 0.00 82 1006.3
20260830145056 51 355 9.0 0.0 0.00 0.00 0.00 83 1006.3
20260830144504 52 360 9.0 0.0 0.00 0.00 0.00 83 1006.2
20260830144011 51 9 9.0 0.0 0.00 0.00 0.00 84 1006.1
20260830143523 50 348 9.0 0.0 0.00 0.00 0.00 84 1006.0
20260830143039 50 355 8.0 0.0 0.00 0.00 0.00 83 1005.9
20260830142555 51 350 6.0 0.0 0.00 0.00 0.00 82 1005.8
20260830142005 51 56 9.0 0.0 0.00 0.00 0.00 80 1005.9
20260830141533 52 355 9.0 0.0 0.00 0.00 0.00 76 1006.0
20260830141040 54 338 7.0 0.0 0.00 0.00 0.00 68 1005.7
20260830140554 55 82 9.0 0.0 0.00 0.00 0.00 58 1005.6
20260830140008 55 138 11.0 0.0 0.00 0.00 0.00 58 1005.4
20260830135532 54 144 11.0 0.0 0.00 0.00 0.00 58 1005.1
20260830135052 54 126 12.0 0.0 0.00 0.00 0.00 58 1005.1
20260830134602 55 126 14.0 0.0 0.00 0.00 0.00 57 1004.9
20260830134016 55 111 14.0 0.0 0.00 0.00 0.00 58 1004.9
20260830133531 55 190 14.0 0.0 0.00 0.00 0.00 59 1004.6
20260830133104 54 162 14.0 0.0 0.00 0.00 0.00 61 1004.5
20260830132600 54 135 12.0 0.0 0.00 0.00 0.00 62 1004.5
20260830132009 54 195 11.0 0.0 0.00 0.00 0.00 61 1004.4
20260830131527 54 128 11.0 0.0 0.00 0.00 0.00 61 1004.1
20260830131045 54 127 10.0 0.0 0.00 0.00 0.00 62 1004.3
20260830130553 53 172 11.0 0.0 0.00 0.00 0.00 63 1004.5
20260830130104 53 141 13.0 0.0 0.00 0.00 0.00 65 1004.6
20260830125519 53 125 11.0 0.0 0.00 0.00 0.00 67 1004.5
20260830125026 51 157 7.0 0.0 0.00 0.00 0.00 74 1004.6
20260830124540 50 109 5.0 0.0 0.00 0.00 0.00 80 1004.2
20260830124050 50 107 5.0 0.0 0.00 0.00 0.00 83 1004.4
20260830123501 51 87 6.0 0.0 0.00 0.00 0.00 83 1004.9
20260830123026 51 87 6.0 0.0 0.00 0.00 0.00 83 1004.9
20260830122532 51 76 5.0 0.0 0.00 0.00 0.00 82 1005.0
20260830122041 51 87 5.0 0.0 0.00 0.00 0.00 81 1005.1
20260830121557 51 87 5.0 0.0 0.00 0.00 0.00 79 1004.3
20260830121019 52 263 6.0 0.0 0.00 0.00 0.00 76 1005.5
20260830120528 52 281 7.0 0.0 0.00 0.00 0.00 76 1005.1
20260830120033 52 332 6.0 0.0 0.00 0.00 0.00 76 1004.3
20260830115544 52 351 5.0 0.0 0.00 0.00 0.00 77 1004.5
20260830115059 52 20 5.0 0.0 0.00 0.00 0.00 77 1004.5
20260830114522 52 343 4.0 0.0 0.00 0.00 0.00 76 1004.5
20260830114026 52 342 4.0 0.0 0.00 0.00 0.00 75 1004.3
20260830113535 52 342 4.0 0.0 0.00 0.00 0.00 75 1004.2
20260830113050 52 319 4.0 0.0 0.00 0.00 0.00 74 1004.3
20260830112556 53 316 5.0 0.0 0.00 0.00 0.00 73 1004.4
20260830112010 53 346 2.0 0.0 0.00 0.00 0.00 72 1004.5
20260830111533 53 12 0.0 0.0 0.00 0.00 0.00 72 1004.4
20260830111042 53 12 1.0 0.0 0.00 0.00 0.00 72 1004.6
20260830110552 53 12 2.0 0.0 0.00 0.00 0.00 72 1004.6
20260830110004 53 12 6.0 0.0 0.00 0.00 0.00 71 1004.5
20260830105522 53 360 7.0 0.0 0.00 0.00 0.00 71 1004.6
20260830105043 54 15 7.0 0.0 0.00 0.00 0.00 71 1004.6
20260830104557 54 350 7.0 0.0 0.00 0.00 0.00 71 1004.9
20260830104103 55 313 7.0 0.0 0.00 0.00 0.00 69 1004.7
20260830103520 56 345 7.0 0.0 0.00 0.00 0.00 66 1004.9
20260830103033 57 341 6.0 0.0 0.00 0.00 0.00 64 1004.9
20260830102547 57 286 5.0 0.0 0.00 0.00 0.00 65 1004.8
20260830102013 57 292 4.0 0.0 0.00 0.00 0.00 61 1004.7
20260830101526 57 246 5.0 0.0 0.00 0.00 0.00 60 1004.7
20260830101041 57 246 6.0 0.0 0.00 0.00 0.00 61 1004.7
20260830100552 57 215 8.0 0.0 0.00 0.00 0.00 64 1004.8
20260830100002 57 232 11.0 0.0 0.00 0.00 0.00 64 1004.7
20260830095517 55 208 11.0 0.0 0.00 0.00 0.00 70 1004.5
20260830095037 55 215 9.0 0.0 0.00 0.00 0.00 70 1004.5
20260830094544 55 216 8.0 0.0 0.00 0.00 0.00 70 1004.4
20260830094001 57 207 10.0 0.0 0.00 0.00 0.00 69 1004.4
20260830093523 57 187 10.0 0.0 0.00 0.00 0.00 69 1003.9
20260830093044 57 148 11.0 0.0 0.00 0.00 0.00 70 1003.7
20260830092552 57 152 11.0 0.0 0.00 0.00 0.00 70 1003.5
20260830092015 56 130 10.0 0.0 0.00 0.00 0.00 69 1003.5
20260830091525 56 166 9.0 0.0 0.00 0.00 0.00 66 1003.6
20260830091050 56 139 8.0 0.0 0.00 0.00 0.00 65 1003.6
20260830090555 56 182 7.0 0.0 0.00 0.00 0.00 64 1003.6
20260830090001 56 145 5.0 0.0 0.00 0.00 0.00 65 1003.8
20260830085511 56 176 3.0 0.0 0.00 0.00 0.00 65 1004.0
20260830085024 56 236 3.0 0.0 0.00 0.00 0.00 64 1004.2
20260830084548 56 236 4.0 0.0 0.00 0.00 0.00 63 1004.3
20260830084101 56 229 4.0 0.0 0.00 0.00 0.00 64 1004.4
20260830083528 55 234 3.0 0.0 0.00 0.00 0.00 64 1004.4
20260830083044 56 146 2.0 0.0 0.00 0.00 0.00 65 1004.3
20260830082553 56 146 2.0 0.0 0.00 0.00 0.00 62 1004.5
20260830082103 56 146 4.0 0.0 0.00 0.00 0.00 63 1004.4
20260830081601 56 150 3.0 0.0 0.00 0.00 0.00 63 1004.5
20260830081021 56 163 2.0 0.0 0.00 0.00 0.00 62 1004.5
20260830080542 56 229 2.0 0.0 0.00 0.00 0.00 63 1004.5